User: anonymous   Login
Location: Unspecified
(0.0000°N, 0.0000°E)
Time: 07:38:46
(UTC+00:00)
Language:

Kosmos-1092 - Orbit

View from above orbital plane
View from above orbital plane
View from above satellite
View from above satellite

Ground track
Ground track

The orbit data is extracted from the following two-line orbital elements,

1 11326U 79030A   18201.54536295  .00000036  00000-0  21484-4 0  9995
2 11326  82.9475  25.4833 0027938 244.7499 167.9812 13.75361409205520
Epoch (UTC): 20 July 2018 13:05:19
Eccentricity: 0.0027938
inclination: 82.9475°
perigee height: 960 km
apogee height: 1001 km
right ascension of ascending node: 25.4833°
argument of perigee: 244.7499°
revolutions per day: 13.75361409
mean anomaly at epoch: 167.9812°
orbit number at epoch: 20552

The dashed part of the orbit path shows where the satellite is in the earth's shadow,  

DLR